Starlink 32124

operational
NORAD ID: 60298 Int'l Des: 2024-132 Owner: SPXS Country: US Constellation: starlink
LEOCIRCULAR

关于 Starlink 32124

正在加载描述...

实时位置

正在加载3D地球...

即将过境

高度历史

Altitude vs Time

uPlot chart will show altitude changes over time

两行轨道根数

1 60298U 24132W 25354.89636560 -.00000357 00000-0 61647-7 0 9996
2 60298 53.1611 58.6415 0001237 98.7695 261.3446 15.30189214 79499
Epoch: Dec 20, 2025 • Age: 12 hours

当前状态

高度 484.2 km
速度 7.62 km/s
星下点 -28.00°S, 154.22°E
发射日期 Jul 28, 2024
运行时间 1.3 years
类型 internet

技术详情

分类 Payload
质量 730.00 kg
干质量 700.00 kg
总质量 730.00 kg
长度 0.30 m
直径 4.10 m
跨度 29.00 m
形状 Box + pan
制造商 SPXS
平台类型 Starlink V2M
阶段状态 In Orbit
所有者/国家 SPXS/US

大型星座

Loading constellations...